Location: Ostrava
(49.8330°N, 18.2830°E)
Time: 04:34:25
(UTC+02:00)

Cosmos 2219 Rocket - Visible Passes

Search period start: 03 July 2015 00:00
Search period end: 13 July 2015 00:00
Orbit: 827 x 848 km, 71.0° (Epoch: 01 July)

Date Brightness Start Highest point End Pass type
(mag) Time Alt. Az. Time Alt. Az. Time Alt. Az.
03 Jul 2.6 00:11:57 10° NNW 00:17:35 58° NE 00:21:48 18° SE visible
03 Jul 3.3 01:56:29 10° NW 02:01:15 27° WSW 02:03:29 21° SW visible
03 Jul 4.5 22:12:29 10° N 22:15:54 16° NNE 22:19:26 10° ENE visible
03 Jul 2.7 23:55:39 10° NNW 00:01:15 55° NE 00:05:29 18° SE visible
04 Jul 3.2 01:40:06 10° NW 01:44:59 29° WSW 01:47:10 22° SW visible
04 Jul 4.5 21:56:14 10° N 21:59:31 16° NNE 22:02:54 10° ENE visible
04 Jul 2.8 23:39:21 10° NNW 23:44:56 52° NE 23:49:12 17° SE visible
05 Jul 3.2 01:23:44 10° NW 01:28:43 31° WSW 01:30:54 24° SW visible
05 Jul 4.5 21:40:00 10° N 21:43:07 15° NNE 21:46:22 10° ENE visible
05 Jul 2.9 23:23:05 10° NNW 23:28:36 49° NE 23:32:58 16° SE visible
06 Jul 3.1 01:07:21 10° NW 01:12:26 33° WSW 01:14:40 25° SSW visible
06 Jul 2.9 23:06:47 10° NNW 23:12:16 46° NE 23:16:47 15° ESE visible
07 Jul 3.0 00:51:00 10° NW 00:56:10 36° WSW 00:58:28 25° SSW visible
07 Jul 3.0 22:50:30 10° NNW 22:55:56 44° NE 23:00:37 14° ESE visible
08 Jul 3.0 00:34:39 10° NW 00:39:54 38° WSW 00:42:20 26° SSW visible
08 Jul 3.1 22:34:13 10° NNW 22:39:36 41° NE 22:44:30 12° ESE visible
09 Jul 2.9 00:18:18 10° NW 00:23:37 41° WSW 00:26:13 26° SSW visible
09 Jul 3.2 22:17:57 10° NNW 22:23:16 39° NE 22:28:25 11° ESE visible
10 Jul 2.8 00:01:58 10° NW 00:07:20 44° WSW 00:10:08 25° SSW visible
10 Jul 3.2 22:01:40 10° NNW 22:06:55 37° NE 22:12:11 10° ESE visible
10 Jul 2.8 23:45:38 10° NW 23:51:04 47° WSW 23:54:05 24° S visible
11 Jul 3.3 21:45:23 10° NNW 21:50:35 35° NE 21:55:47 10° ESE visible
11 Jul 2.7 23:29:17 10° NW 23:34:47 50° WSW 23:38:04 23° S visible
12 Jul 3.3 21:29:06 10° NNW 21:34:14 34° NE 21:39:22 10° ESE visible
12 Jul 2.6 23:12:57 10° NW 23:18:30 53° WSW 23:22:05 21° S visible
